Weather in La Malbaie

Canada     47°39′30″N   70°09′16″W
temp.,
°C
wind,
m/s
gust,
m/s
humid.,
%
clouds,
%
prec.,
mm/h
press.,
hPa
HPBL,
m
16 may, sun
sun1623:00+6se2298100 0.0 102250
02:00+5ssw1198100 0.0 102341
05:00+5nne119788 0.0 102317
08:00+9sse118497 0.0 1024305
11:00+14se216099 0.5 1023625
14:00+16ese215695 2.3 10221166
17:00+15se216321 2.0 1022749
20:00+9ese118427 2.7 102318
17 may, mon
mon1723:00+7n00915 0.0 102412
02:00+5ssw00955 0.0 102410
05:00+5sse0096100 0.0 102410
08:00+10sse117899 0.0 1025283
11:00+16sse225797 0.0 1023826
14:00+17sse335343 0.3 10211150
17:00+17s34546 0.5 10201232
20:00+10s2295100 2.3 102159
18 may, tue
tue1823:00+8sse0196100 0.3 102029
02:00+6ssw1199100 0.4 101960
05:00+5s2299100 3.6 1019139
08:00+10wnw4984100 3.9 1019892
11:00+11nw4875100 0.0 1020894
14:00+15nnw5737100 0.0 10191431
17:00+15nw5839100 0.0 10201316
20:00+10wnw3849100 0.0 1021253
19 may, wed
wed1923:00+9nw3847100 0.0 1022195
02:00+7nw3454100 0.0 102264
05:00+6nw2253100 0.0 102339
08:00+7nw2367100 0.1 1025120
11:00+9nne1160100 0.0 1025300
14:00+17ese234662 0.0 10231038
17:00+13se325387 0.0 1025456
20:00+9ese117213 0.0 102611
20 may, thu
thu2023:00+7w11766 0.0 102810
02:00+6wsw017120 0.0 102911
05:00+6sw116794 0.0 102918
08:00+11s225312 0.0 1030263
11:00+17s334299 0.0 1029612
14:00+21s344222 0.0 1027784
17:00+21s24477 0.0 1026657
20:00+16ssw1174100 0.0 102511